N696CJ RPLL-RPVB

Flight info

Callsign N696CJ
Flight time 0h 51m
Altitude 33000
Route HARBO1 HARBO DCT VERDE A461 SAJ W3 BEDER BEDER3P
Aircraft C25C/M-SDE2E3FGHRWXYZ/LB2

Departure

Time 2026-04-22 22:00
Airport Ninoy Aquino International Airport (RPLL)

Arrival

Time 2026-04-22 22:52
Airport Bacolod-Silay International Airport (RPVB)
Time Latitude Longitude Altitude Speed Heading
2026-04-22 21:43 14.51838 121.00421 62 ft 0 kts 72°
2026-04-22 21:53 14.51837 121.00445 62 ft 7 kts 109°
2026-04-22 21:53 14.51824 121.00504 62 ft 9 kts 70°
2026-04-22 21:54 14.51854 121.00564 62 ft 9 kts 63°
2026-04-22 21:54 14.51907 121.00598 57 ft 10 kts
2026-04-22 21:54 14.51985 121.00613 58 ft 12 kts 10°
2026-04-22 21:54 14.52076 121.00631 54 ft 14 kts 14°
2026-04-22 21:55 14.52140 121.00697 57 ft 13 kts 55°
2026-04-22 21:55 14.52151 121.00771 55 ft 11 kts 135°
2026-04-22 21:55 14.52090 121.00833 62 ft 13 kts 135°
2026-04-22 21:55 14.52018 121.00907 62 ft 16 kts 135°
2026-04-22 21:56 14.51937 121.00991 60 ft 17 kts 134°
2026-04-22 21:56 14.51857 121.01074 63 ft 16 kts 135°
2026-04-22 21:56 14.51777 121.01156 63 ft 16 kts 135°
2026-04-22 21:56 14.51698 121.01237 62 ft 16 kts 135°
2026-04-22 21:57 14.51620 121.01318 62 ft 16 kts 135°
2026-04-22 21:57 14.51543 121.01397 62 ft 16 kts 135°
2026-04-22 21:57 14.51466 121.01477 56 ft 16 kts 135°
2026-04-22 21:57 14.51389 121.01555 60 ft 15 kts 135°
2026-04-22 21:58 14.51314 121.01633 62 ft 15 kts 135°
2026-04-22 21:58 14.51238 121.01709 62 ft 15 kts 134°
2026-04-22 21:58 14.51166 121.01785 59 ft 14 kts 134°
2026-04-22 21:58 14.51096 121.01856 62 ft 14 kts 146°
2026-04-22 21:59 14.51033 121.01815 61 ft 13 kts 266°
2026-04-22 21:59 14.51070 121.01740 57 ft 9 kts 314°
2026-04-22 21:59 14.51078 121.01732 59 ft 0 kts 314°
2026-04-22 21:59 14.51088 121.01721 62 ft 22 kts 314°
2026-04-22 22:00 14.51474 121.01330 73 ft 129 kts 317°
2026-04-22 22:00 14.52267 121.00553 545 ft 184 kts 317°
2026-04-22 22:00 14.53276 120.99574 1393 ft 208 kts 317°
2026-04-22 22:00 14.54378 120.98498 2325 ft 227 kts 317°
2026-04-22 22:01 14.55558 120.97340 3314 ft 240 kts 316°
2026-04-22 22:01 14.56577 120.95962 4454 ft 245 kts 296°
2026-04-22 22:01 14.56959 120.94222 5448 ft 256 kts 269°
2026-04-22 22:01 14.56552 120.92418 6411 ft 263 kts 247°
2026-04-22 22:02 14.55666 120.90748 7390 ft 267 kts 237°
2026-04-22 22:02 14.54688 120.89104 8453 ft 269 kts 237°
2026-04-22 22:02 14.53641 120.87498 9485 ft 272 kts 226°
2026-04-22 22:02 14.52612 120.86779 10120 ft 272 kts 199°
2026-04-22 22:03 14.50753 120.86644 11041 ft 273 kts 169°
2026-04-22 22:03 14.48273 120.87240 12177 ft 279 kts 166°
2026-04-22 22:03 14.46355 120.87662 13029 ft 284 kts 168°
2026-04-22 22:03 14.44376 120.87965 13840 ft 290 kts 171°
2026-04-22 22:04 14.43022 120.88165 14321 ft 292 kts 170°
2026-04-22 22:04 14.40994 120.88484 15052 ft 296 kts 170°
2026-04-22 22:04 14.38945 120.88826 15783 ft 300 kts 170°
2026-04-22 22:04 14.36873 120.89165 16526 ft 303 kts 171°
2026-04-22 22:05 14.34774 120.89508 17220 ft 308 kts 171°
2026-04-22 22:05 14.32672 120.89844 17917 ft 311 kts 172°
2026-04-22 22:05 14.30525 120.90197 18554 ft 314 kts 172°
2026-04-22 22:05 14.28360 120.90546 19161 ft 316 kts 172°
2026-04-22 22:06 14.26176 120.90904 19752 ft 319 kts 172°
2026-04-22 22:06 14.23970 120.91260 20348 ft 323 kts 172°
2026-04-22 22:06 14.21739 120.91623 20935 ft 326 kts 173°
2026-04-22 22:06 14.19489 120.91988 21518 ft 329 kts 172°
2026-04-22 22:07 14.17218 120.92356 22096 ft 332 kts 173°
2026-04-22 22:07 14.14925 120.92731 22670 ft 335 kts 173°
2026-04-22 22:07 14.12608 120.93103 23236 ft 339 kts 173°
2026-04-22 22:07 14.10270 120.93486 23755 ft 342 kts 173°
2026-04-22 22:08 14.07914 120.93864 24246 ft 344 kts 173°
2026-04-22 22:08 14.05539 120.94254 24748 ft 346 kts 173°
2026-04-22 22:08 14.03152 120.94638 25246 ft 349 kts 173°
2026-04-22 22:08 14.00749 120.95028 25740 ft 351 kts 173°
2026-04-22 22:09 13.98328 120.95421 26236 ft 353 kts 172°
2026-04-22 22:09 13.95892 120.95815 26724 ft 356 kts 173°
2026-04-22 22:09 13.93440 120.96214 27197 ft 358 kts 172°
2026-04-22 22:09 13.90966 120.96612 27676 ft 361 kts 172°
2026-04-22 22:10 13.88483 120.97017 28199 ft 361 kts 172°
2026-04-22 22:10 13.86005 120.97415 28809 ft 360 kts 172°
2026-04-22 22:10 13.83534 120.97819 29415 ft 358 kts 172°
2026-04-22 22:10 13.81076 120.98214 30015 ft 357 kts 172°
2026-04-22 22:11 13.78626 120.98611 30513 ft 356 kts 172°
2026-04-22 22:11 13.76180 120.99007 30995 ft 356 kts 172°
2026-04-22 22:11 13.73678 120.99410 31007 ft 372 kts 172°
2026-04-22 22:11 13.71084 120.99831 31180 ft 380 kts 172°
2026-04-22 22:12 13.68457 121.00082 31645 ft 378 kts 180°
2026-04-22 22:12 13.65834 121.00062 32121 ft 377 kts 181°
2026-04-22 22:12 13.63209 121.00092 32466 ft 380 kts 179°
2026-04-22 22:12 13.60543 121.00360 32599 ft 390 kts 171°
2026-04-22 22:13 13.57880 121.01041 32732 ft 399 kts 165°
2026-04-22 22:13 13.55203 121.01893 32857 ft 406 kts 163°
2026-04-22 22:13 13.52475 121.02723 32886 ft 414 kts 167°
2026-04-22 22:14 13.46672 121.03251 32933 ft 425 kts 182°
2026-04-22 22:14 13.40700 121.03254 32938 ft 432 kts 180°
2026-04-22 22:15 13.34672 121.03341 32942 ft 435 kts 181°
2026-04-22 22:15 13.28641 121.03386 32943 ft 437 kts 181°
2026-04-22 22:16 13.22558 121.03455 32944 ft 437 kts 180°
2026-04-22 22:16 13.16471 121.03511 32944 ft 438 kts 180°
2026-04-22 22:17 13.10367 121.03574 32943 ft 439 kts 180°
2026-04-22 22:17 13.04248 121.03635 32945 ft 440 kts 181°
2026-04-22 22:18 12.98118 121.03696 32944 ft 440 kts 180°
2026-04-22 22:18 12.91977 121.03758 32946 ft 441 kts 181°
2026-04-22 22:19 12.85836 121.03818 32929 ft 442 kts 181°
2026-04-22 22:19 12.79694 121.03880 32931 ft 441 kts 181°
2026-04-22 22:20 12.73552 121.03940 32926 ft 441 kts 181°
2026-04-22 22:20 12.67406 121.04001 32927 ft 441 kts 181°
2026-04-22 22:21 12.61269 121.04062 32918 ft 441 kts 181°
2026-04-22 22:21 12.55134 121.04122 32915 ft 441 kts 181°
2026-04-22 22:22 12.49042 121.04182 32907 ft 440 kts 181°
2026-04-22 22:22 12.42910 121.04242 32907 ft 440 kts 181°
2026-04-22 22:23 12.36797 121.04638 32895 ft 442 kts 169°
2026-04-22 22:23 12.31077 121.06963 32889 ft 446 kts 150°
2026-04-22 22:24 12.26413 121.11134 32894 ft 450 kts 130°
2026-04-22 22:24 12.22745 121.16326 32892 ft 450 kts 127°
2026-04-22 22:25 12.18744 121.21216 32892 ft 448 kts 138°
2026-04-22 22:25 12.14002 121.25327 32897 ft 447 kts 141°
2026-04-22 22:26 12.09496 121.29712 32897 ft 448 kts 136°
2026-04-22 22:26 12.04934 121.34041 32895 ft 447 kts 139°
2026-04-22 22:27 12.00390 121.38380 32881 ft 447 kts 138°
2026-04-22 22:27 11.98129 121.40552 32578 ft 446 kts 138°
2026-04-22 22:27 11.95854 121.42713 32213 ft 447 kts 138°
2026-04-22 22:27 11.93577 121.44876 31849 ft 447 kts 138°
2026-04-22 22:28 11.91307 121.47047 31493 ft 447 kts 138°
2026-04-22 22:28 11.89058 121.49189 31145 ft 447 kts 138°
2026-04-22 22:28 11.86757 121.51387 30793 ft 447 kts 137°
2026-04-22 22:28 11.84512 121.53518 30460 ft 446 kts 137°
2026-04-22 22:29 11.82246 121.55681 30121 ft 446 kts 137°
2026-04-22 22:29 11.79975 121.57840 29752 ft 445 kts 137°
2026-04-22 22:29 11.77717 121.59995 29357 ft 444 kts 137°
2026-04-22 22:29 11.75455 121.62143 28967 ft 443 kts 137°
2026-04-22 22:30 11.73205 121.64289 28583 ft 443 kts 137°
2026-04-22 22:30 11.70953 121.66427 28204 ft 442 kts 137°
2026-04-22 22:30 11.68711 121.68565 27831 ft 441 kts 137°
2026-04-22 22:30 11.66463 121.70697 27456 ft 440 kts 137°
2026-04-22 22:31 11.64228 121.72827 27095 ft 439 kts 137°
2026-04-22 22:31 11.61992 121.74947 26736 ft 439 kts 137°
2026-04-22 22:31 11.59765 121.77069 26381 ft 438 kts 137°
2026-04-22 22:31 11.57533 121.79185 26029 ft 437 kts 137°
2026-04-22 22:32 11.55314 121.81298 25682 ft 436 kts 137°
2026-04-22 22:32 11.53093 121.83402 25342 ft 435 kts 136°
2026-04-22 22:32 11.50883 121.85505 25011 ft 434 kts 136°
2026-04-22 22:32 11.48698 121.87574 24683 ft 433 kts 136°
2026-04-22 22:33 11.46499 121.89666 24350 ft 432 kts 136°
2026-04-22 22:33 11.44300 121.91747 24024 ft 431 kts 136°
2026-04-22 22:33 11.42112 121.93828 23701 ft 430 kts 136°
2026-04-22 22:33 11.39915 121.95906 23359 ft 429 kts 136°
2026-04-22 22:34 11.37738 121.97976 22977 ft 428 kts 136°
2026-04-22 22:34 11.35564 122.00032 22608 ft 425 kts 136°
2026-04-22 22:34 11.33408 122.02081 22233 ft 421 kts 136°
2026-04-22 22:34 11.31266 122.04105 21862 ft 419 kts 136°
2026-04-22 22:35 11.29144 122.06121 21441 ft 415 kts 137°
2026-04-22 22:35 11.27040 122.08108 21016 ft 411 kts 137°
2026-04-22 22:35 11.24964 122.10080 20590 ft 406 kts 137°
2026-04-22 22:35 11.22901 122.12027 20168 ft 402 kts 137°
2026-04-22 22:36 11.20863 122.13962 19755 ft 399 kts 137°
2026-04-22 22:36 11.18733 122.15757 19342 ft 395 kts 142°
2026-04-22 22:36 11.16881 122.17754 18933 ft 394 kts 128°
2026-04-22 22:36 11.15277 122.20008 18540 ft 392 kts 126°
2026-04-22 22:37 11.13674 122.22252 18137 ft 390 kts 128°
2026-04-22 22:37 11.11962 122.24388 17673 ft 388 kts 130°
2026-04-22 22:37 11.10240 122.26498 17219 ft 387 kts 136°
2026-04-22 22:37 11.08216 122.28286 16766 ft 386 kts 136°
2026-04-22 22:38 11.06550 122.30409 16303 ft 381 kts 127°
2026-04-22 22:38 11.05001 122.32571 15822 ft 374 kts 128°
2026-04-22 22:38 11.03378 122.34606 15350 ft 368 kts 133°
2026-04-22 22:38 11.01631 122.36480 14882 ft 363 kts 135°
2026-04-22 22:39 10.99932 122.38371 14427 ft 360 kts 132°
2026-04-22 22:39 10.98317 122.40297 13972 ft 356 kts 131°
2026-04-22 22:39 10.96700 122.42190 13494 ft 353 kts 133°
2026-04-22 22:39 10.95073 122.44047 12982 ft 350 kts 133°
2026-04-22 22:40 10.93477 122.45886 12479 ft 341 kts 132°
2026-04-22 22:40 10.91927 122.47669 11988 ft 332 kts 132°
2026-04-22 22:40 10.90423 122.49420 11503 ft 324 kts 132°
2026-04-22 22:40 10.88940 122.51118 11022 ft 318 kts 132°
2026-04-22 22:41 10.87512 122.52814 10547 ft 313 kts 128°
2026-04-22 22:41 10.86244 122.54595 10112 ft 308 kts 128°
2026-04-22 22:41 10.84921 122.56280 9738 ft 302 kts 128°
2026-04-22 22:41 10.83660 122.57959 9329 ft 295 kts 127°
2026-04-22 22:42 10.82431 122.59605 8922 ft 290 kts 127°
2026-04-22 22:42 10.81229 122.61228 8522 ft 285 kts 127°
2026-04-22 22:42 10.80030 122.62818 8130 ft 281 kts 127°
2026-04-22 22:42 10.78876 122.64365 7771 ft 275 kts 126°
2026-04-22 22:43 10.77724 122.65898 7412 ft 271 kts 127°
2026-04-22 22:43 10.76594 122.67414 7066 ft 267 kts 126°
2026-04-22 22:43 10.75478 122.68898 6737 ft 263 kts 127°
2026-04-22 22:43 10.74378 122.70375 6410 ft 260 kts 126°
2026-04-22 22:44 10.73282 122.71830 6070 ft 258 kts 126°
2026-04-22 22:44 10.72204 122.73277 5724 ft 255 kts 126°
2026-04-22 22:44 10.71131 122.74700 5383 ft 251 kts 126°
2026-04-22 22:44 10.70085 122.76108 5061 ft 248 kts 126°
2026-04-22 22:45 10.69041 122.77489 4751 ft 245 kts 126°
2026-04-22 22:45 10.68020 122.78862 4431 ft 242 kts 126°
2026-04-22 22:45 10.66997 122.80217 4109 ft 240 kts 126°
2026-04-22 22:45 10.65999 122.81573 3788 ft 238 kts 123°
2026-04-22 22:46 10.65204 122.83030 3498 ft 234 kts 117°
2026-04-22 22:46 10.64371 122.84451 3241 ft 235 kts 120°
2026-04-22 22:46 10.63551 122.85877 2973 ft 232 kts 118°
2026-04-22 22:46 10.62741 122.87285 2703 ft 228 kts 119°
2026-04-22 22:47 10.61962 122.88664 2507 ft 223 kts 118°
2026-04-22 22:47 10.61236 122.90026 2320 ft 216 kts 109°
2026-04-22 22:47 10.61252 122.91506 2172 ft 209 kts 74°
2026-04-22 22:47 10.61997 122.92722 2045 ft 204 kts 40°
2026-04-22 22:48 10.63193 122.93487 1923 ft 203 kts 31°
2026-04-22 22:48 10.64407 122.94211 1856 ft 202 kts 30°
2026-04-22 22:48 10.65641 122.94905 1835 ft 202 kts 30°
2026-04-22 22:48 10.66872 122.95621 1815 ft 206 kts 30°
2026-04-22 22:49 10.67698 122.96097 1814 ft 206 kts 30°
2026-04-22 22:49 10.69336 122.97056 1761 ft 201 kts 30°
2026-04-22 22:49 10.70471 122.97719 1539 ft 176 kts 30°
2026-04-22 22:49 10.71495 122.98309 1308 ft 164 kts 30°
2026-04-22 22:50 10.72471 122.98884 1086 ft 160 kts 31°
2026-04-22 22:50 10.73433 122.99438 909 ft 152 kts 30°
2026-04-22 22:50 10.73999 122.99756 829 ft 132 kts 30°
2026-04-22 22:50 10.74778 123.00207 653 ft 127 kts 33°
2026-04-22 22:51 10.75770 123.00788 412 ft 121 kts 32°
2026-04-22 22:51 10.76243 123.01068 274 ft 117 kts 32°
2026-04-22 22:51 10.76914 123.01465 108 ft 105 kts 31°
2026-04-22 22:51 10.77468 123.01795 88 ft 79 kts 29°
2026-04-22 22:52 10.77877 123.02033 91 ft 56 kts 30°
2026-04-22 22:52 10.78090 123.02150 90 ft 23 kts 25°
2026-04-22 22:52 10.78100 123.02183 90 ft 8 kts 217°
2026-04-22 22:52 10.78058 123.02140 92 ft 9 kts 215°
2026-04-22 22:53 10.77995 123.02101 89 ft 13 kts 209°
2026-04-22 22:53 10.77907 123.02050 89 ft 16 kts 210°
2026-04-22 22:53 10.77806 123.01990 92 ft 17 kts 210°
2026-04-22 22:53 10.77703 123.01929 89 ft 17 kts 219°
2026-04-22 22:54 10.77703 123.01833 88 ft 15 kts 298°
2026-04-22 22:54 10.77739 123.01771 88 ft 13 kts 301°
2026-04-22 22:54 10.77739 123.01697 89 ft 11 kts 233°
2026-04-22 22:54 10.77674 123.01653 87 ft 12 kts 209°
2026-04-22 22:55 10.77599 123.01610 90 ft 13 kts 210°
2026-04-22 22:55 10.77521 123.01564 88 ft 14 kts 210°
2026-04-22 22:55 10.77360 123.01482 85 ft 13 kts 208°
2026-04-22 22:56 10.77264 123.01426 80 ft 13 kts 210°
2026-04-22 22:56 10.77268 123.01375 81 ft 8 kts 329°
2026-04-22 22:56 10.77290 123.01379 79 ft 0 kts 33°